FWI089 TFFR-SKBO

Flight info

Callsign FWI089
Flight time N/A
Altitude 40000
Route TULEX2F TULEX DCT ITEGO UP533 ATONO/N0480F430 UP533 KIKAS UW44 PUKEN DCT DOPLO DOPLO5W
Aircraft A359/H-SDE2E3GHIJ3J4J5LM1ORWXY/LB1D1

Departure

Time 2026-04-26 17:06
Airport Maryse Condé International Airport (TFFR)

Arrival

Time N/A
Airport El Dorado International Airport (SKBO)
Time Latitude Longitude Altitude Speed Heading
2026-04-26 16:11 16.26893 -61.52678 40 ft 0 kts
2026-04-26 16:54 16.26881 -61.52679 37 ft 2 kts 28°
2026-04-26 16:54 16.26880 -61.52679 37 ft 0 kts 28°
2026-04-26 16:55 16.26872 -61.52683 37 ft 2 kts 15°
2026-04-26 16:55 16.26862 -61.52686 38 ft 1 kts 15°
2026-04-26 16:55 16.26849 -61.52688 37 ft 2 kts 346°
2026-04-26 16:56 16.26832 -61.52678 36 ft 0 kts 309°
2026-04-26 16:58 16.26830 -61.52703 38 ft 10 kts 265°
2026-04-26 16:59 16.26830 -61.52787 39 ft 11 kts 281°
2026-04-26 16:59 16.26835 -61.52814 39 ft 0 kts 282°
2026-04-26 17:00 16.26846 -61.52865 38 ft 10 kts 277°
2026-04-26 17:00 16.26778 -61.52940 38 ft 8 kts 194°
2026-04-26 17:00 16.26716 -61.52953 37 ft 11 kts 191°
2026-04-26 17:01 16.26633 -61.52969 37 ft 13 kts 189°
2026-04-26 17:01 16.26537 -61.52998 36 ft 15 kts 221°
2026-04-26 17:01 16.26518 -61.53106 36 ft 17 kts 278°
2026-04-26 17:01 16.26539 -61.53234 35 ft 19 kts 281°
2026-04-26 17:02 16.26564 -61.53375 34 ft 20 kts 281°
2026-04-26 17:02 16.26591 -61.53520 35 ft 20 kts 281°
2026-04-26 17:02 16.26618 -61.53667 34 ft 21 kts 281°
2026-04-26 17:02 16.26649 -61.53826 31 ft 23 kts 281°
2026-04-26 17:03 16.26680 -61.53993 29 ft 24 kts 281°
2026-04-26 17:03 16.26705 -61.54124 27 ft 18 kts 281°
2026-04-26 17:03 16.26730 -61.54259 28 ft 15 kts 281°
2026-04-26 17:03 16.26735 -61.54337 29 ft 11 kts 256°
2026-04-26 17:04 16.26714 -61.54382 28 ft 2 kts 278°
2026-04-26 17:04 16.26725 -61.54389 28 ft 4 kts 332°
2026-04-26 17:04 16.26742 -61.54368 28 ft 8 kts 75°
2026-04-26 17:04 16.26736 -61.54291 27 ft 6 kts 101°
2026-04-26 17:05 16.26736 -61.54290 27 ft 0 kts 100°
2026-04-26 17:05 16.26723 -61.54221 30 ft 41 kts 100°
2026-04-26 17:05 16.26619 -61.53652 34 ft 117 kts 101°
2026-04-26 17:05 16.26418 -61.52598 98 ft 174 kts 102°
2026-04-26 17:06 16.26181 -61.51346 881 ft 180 kts 103°
2026-04-26 17:06 16.26012 -61.50144 2157 ft 152 kts 99°
2026-04-26 17:06 16.25858 -61.49132 2941 ft 138 kts 106°
2026-04-26 17:06 16.25639 -61.48104 3264 ft 155 kts 105°
2026-04-26 17:07 16.25395 -61.46932 3551 ft 176 kts 105°
2026-04-26 17:07 16.25131 -61.45607 3809 ft 198 kts 104°
2026-04-26 17:07 16.24627 -61.44216 4048 ft 216 kts 126°
2026-04-26 17:07 16.23403 -61.43255 4325 ft 234 kts 162°
2026-04-26 17:08 16.21732 -61.42974 4720 ft 251 kts 174°
2026-04-26 17:08 16.19968 -61.42859 5351 ft 255 kts 176°
2026-04-26 17:08 16.18177 -61.42742 5998 ft 260 kts 175°
2026-04-26 17:08 16.16341 -61.42611 6563 ft 267 kts 175°
2026-04-26 17:09 16.14501 -61.42477 7161 ft 269 kts 174°
2026-04-26 17:09 16.13239 -61.42380 7567 ft 271 kts 176°
2026-04-26 17:09 16.10749 -61.42187 8469 ft 271 kts 176°
2026-04-26 17:09 16.08843 -61.42039 9017 ft 277 kts 176°
2026-04-26 17:10 16.06885 -61.41885 9638 ft 281 kts 176°
2026-04-26 17:10 16.04941 -61.41739 10168 ft 286 kts 178°
2026-04-26 17:10 16.02909 -61.41774 10461 ft 299 kts 187°
2026-04-26 17:10 16.00835 -61.42271 10706 ft 313 kts 200°
2026-04-26 17:11 15.98859 -61.43306 10923 ft 326 kts 214°
2026-04-26 17:11 15.97113 -61.44882 11126 ft 339 kts 228°
2026-04-26 17:11 15.95697 -61.46881 11441 ft 347 kts 236°
2026-04-26 17:11 15.94391 -61.48995 11878 ft 350 kts 237°
2026-04-26 17:12 15.91734 -61.53306 12737 ft 356 kts 237°
2026-04-26 17:12 15.90382 -61.55480 13212 ft 358 kts 237°
2026-04-26 17:13 15.87645 -61.59862 13965 ft 365 kts 237°
2026-04-26 17:13 15.86274 -61.62052 14364 ft 366 kts 237°
2026-04-26 17:13 15.83481 -61.66510 15133 ft 371 kts 237°
2026-04-26 17:14 15.82068 -61.68762 15545 ft 372 kts 237°
2026-04-26 17:14 15.79225 -61.73293 16296 ft 377 kts 237°
2026-04-26 17:14 15.77791 -61.75578 16667 ft 379 kts 237°
2026-04-26 17:15 15.74897 -61.80185 17419 ft 383 kts 237°
2026-04-26 17:15 15.73438 -61.82509 17787 ft 385 kts 236°
2026-04-26 17:15 15.71968 -61.84847 18161 ft 387 kts 236°
2026-04-26 17:16 15.70491 -61.87195 18484 ft 389 kts 236°
2026-04-26 17:16 15.69008 -61.89553 18784 ft 391 kts 236°
2026-04-26 17:16 15.67518 -61.91922 19103 ft 393 kts 236°
2026-04-26 17:16 15.66019 -61.94303 19382 ft 395 kts 237°
2026-04-26 17:17 15.64513 -61.96695 19691 ft 397 kts 236°
2026-04-26 17:17 15.63022 -61.99064 19989 ft 398 kts 236°
2026-04-26 17:17 15.61502 -62.01476 20291 ft 400 kts 236°
2026-04-26 17:17 15.59977 -62.03896 20575 ft 402 kts 236°
2026-04-26 17:18 15.58444 -62.06328 20855 ft 403 kts 236°
2026-04-26 17:18 15.56906 -62.08767 21149 ft 405 kts 236°
2026-04-26 17:18 15.55353 -62.11229 21427 ft 407 kts 236°
2026-04-26 17:18 15.53801 -62.13689 21701 ft 408 kts 236°
2026-04-26 17:19 15.50677 -62.18637 22242 ft 412 kts 236°
2026-04-26 17:19 15.49106 -62.21125 22506 ft 413 kts 236°
2026-04-26 17:19 15.47525 -62.23627 22751 ft 416 kts 236°
2026-04-26 17:20 15.45956 -62.26112 23005 ft 417 kts 236°
2026-04-26 17:20 15.45417 -62.26964 23086 ft 418 kts 236°
2026-04-26 17:20 15.42759 -62.31166 23551 ft 420 kts 236°
2026-04-26 17:20 15.41153 -62.33705 23769 ft 422 kts 236°
2026-04-26 17:21 15.40059 -62.35434 23926 ft 423 kts 236°